Home > Weather > Pratteln > Past weeks

Flag for Switzerland Past Weather in Pratteln, Basel-Land, Switzerland — Yesterday and Last 2 Weeks

Now
63 °F

Passing clouds.


Feels Like: 63 °F
Forecast: 63 / 74 °F
Wind: 5 mph from South

Location: Bale-Mulhouse

Current Time: Jul 24, 2016 at 6:59:42 AM

Latest Report: Jul 24, 2016 at 6:30 AM


Visibility: N/A

Pressure: 30.12 "Hg

Humidity: 94%

Dew Point: 61 °F

Location of PrattelnLocation

Past Weather in Pratteln — Graph

°F

Pratteln Temperature Yesterday

Maximum temperature yesterday: 81 °F (at 5:30 PM)
Minimum temperature yesterday: 61 °F (at 5:00 AM)
Average temperature yesterday: 70 °F

High & Low Weather Summary for the Past Weeks

 TemperatureHumidityPressure
High95 °F (Jul 20, 3:30 PM)100% (Jul 13, 1:30 AM)30.33 "Hg (Jul 13, 1:30 AM)
Low45 °F (Jul 16, 5:00 AM)27% (Jul 19, 7:00 PM)29.89 "Hg (Jul 10, 5:00 PM)
Average69 °F72%30.09 "Hg
* Reported Jul 9 5:00 AM — Jul 24 5:30 AM, Pratteln, Weather by CustomWeather, © 2016

Note: Actual official high and low records may vary slightly from our data, if they occured in-between our weather recording intervals... More about our weather records

Advertising

Pratteln Weather History for the Previous 24 Hours

Scroll right to see more
 ConditionsComfort  
Time TempWeatherWind HumidityBarometerVisibility
5:30 AM
Sun, Jul 24
63 °FPassing clouds.2 mph88%30.09 "HgN/A
5:00 AM63 °FClear.3 mph94%30.09 "Hg10 mi
4:30 AM64 °FClear.2 mph88%30.12 "Hg10 mi
4:00 AM64 °FClear.No wind88%30.12 "Hg10 mi
3:30 AM66 °FPassing clouds.1 mph88%30.12 "HgN/A
3:00 AM66 °FMostly cloudy.No wind88%30.12 "HgN/A
2:30 AM66 °FPassing clouds.No wind88%30.12 "HgN/A
2:00 AM66 °FPassing clouds.2 mph88%30.12 "HgN/A
1:30 AM66 °FPassing clouds.2 mph88%30.12 "HgN/A
1:00 AM66 °FPassing clouds.No wind88%30.12 "HgN/A
12:30 AM68 °FPartly cloudy.5 mph83%30.12 "HgN/A
12:00 AM68 °FPassing clouds.7 mph83%30.12 "HgN/A
11:30 PM
Sat, Jul 23
68 °FPassing clouds.6 mph83%30.12 "HgN/A
11:00 PM68 °FPassing clouds.6 mph83%30.12 "HgN/A
10:30 PM68 °FPassing clouds.3 mph83%30.09 "HgN/A
10:00 PM70 °FScattered clouds.6 mph78%30.09 "HgN/A
9:30 PM72 °FScattered clouds.6 mph73%30.09 "HgN/A
9:00 PM73 °FScattered clouds.7 mph69%30.07 "HgN/A
8:30 PM75 °FScattered clouds.6 mph65%30.07 "HgN/A
8:00 PM75 °FBroken clouds.6 mph69%30.04 "HgN/A
7:30 PM77 °FPartly sunny.7 mph65%30.07 "HgN/A
7:00 PM77 °FBroken clouds.7 mph65%30.04 "HgN/A
6:30 PM75 °FBroken clouds.5 mph69%30.04 "HgN/A
6:00 PM75 °FBroken clouds.6 mph69%30.04 "HgN/A
5:30 PM81 °FBroken clouds.8 mph51%30.04 "HgN/A
5:00 PM79 °FScattered clouds.8 mph54%30.04 "HgN/A
4:30 PM77 °FScattered clouds.8 mph57%30.07 "HgN/A
4:00 PM79 °FScattered clouds.8 mph58%30.07 "HgN/A
3:30 PM77 °FScattered clouds.10 mph65%30.07 "HgN/A
3:00 PM79 °FScattered clouds.8 mph58%30.07 "HgN/A
2:30 PM77 °FScattered clouds.8 mph61%30.07 "HgN/A
2:00 PM77 °FBroken clouds.7 mph61%30.07 "HgN/A
1:30 PM75 °FScattered clouds.5 mph65%30.07 "HgN/A
1:00 PM77 °FScattered clouds.5 mph65%30.07 "HgN/A
12:30 PM75 °FScattered clouds.3 mph65%30.07 "HgN/A
12:00 PM73 °FPartly sunny.6 mph69%30.07 "HgN/A
11:30 AM73 °FPartly sunny.3 mph69%30.07 "HgN/A
11:00 AM72 °FPartly sunny.3 mph73%30.07 "HgN/A
10:30 AM70 °FPartly sunny.3 mph78%30.07 "HgN/A
10:00 AM70 °FPartly sunny.2 mph78%30.07 "HgN/A
9:30 AM70 °FPartly sunny.2 mph78%30.07 "HgN/A
9:00 AM68 °FPartly sunny.2 mph83%30.07 "HgN/A
8:30 AM66 °FPartly sunny.2 mph88%30.07 "HgN/A
8:00 AM64 °FPartly sunny.3 mph94%30.04 "HgN/A
7:30 AM63 °FPartly sunny.5 mph100%30.04 "HgN/A
7:00 AM63 °FSunny.2 mph94%30.04 "Hg10 mi
6:30 AM63 °FClear.2 mph94%30.04 "Hg10 mi
6:00 AM63 °FClear.No wind94%30.04 "Hg10 mi
Weather by CustomWeather, © 2016

See weather overviewHow to use our weather pages